DateTimeUTC,F1_A11,F1_S11,BsB_S11,BsG_S11,BsR_S11,BbsB_S11,BbsG_S11,BbsR_S11,BaB_A11,BaG_A11,BaR_A11,Tu_S11,T_S11,Uu_S11,U_S11,P_S11,T1_A11
2021-08-02T01:00:00Z,00000200,20000000,,,,,,,-000.33,-000.16,0000.06,18.8,25.8,04.0,02.6,0674.3,31.0
2021-08-02T01:01:00Z,00000200,20000000,,,,,,,-000.00,0000.02,0000.19,18.8,25.9,04.0,02.6,0674.3,31.0
2021-08-02T01:02:00Z,00000200,20000000,,,,,,,0000.27,-000.24,-000.08,18.7,25.8,04.0,02.6,0674.3,31.0
2021-08-02T01:03:00Z,00000200,60000000,,,,,,,0000.52,0000.86,0000.14,18.7,25.8,04.0,02.6,0674.3,31.0
2021-08-02T01:04:00Z,00000200,40000000,0002.89,0001.84,0001.27,0000.37,0000.26,0000.39,0000.65,0000.15,0000.76,18.8,25.6,03.9,02.6,0675.1,31.0
2021-08-02T01:05:00Z,00000200,00000000,0002.39,0001.60,0001.05,0000.28,0000.29,0000.73,0000.31,0000.48,-000.08,18.9,25.5,03.9,02.6,0675.2,31.0
2021-08-02T01:06:00Z,00000200,00000000,0002.04,0001.22,0000.94,-000.06,0000.16,0000.40,0000.25,0000.33,-000.37,18.8,25.5,03.8,02.5,0675.2,31.0
2021-08-02T01:07:00Z,00000200,00000000,0001.70,0000.98,0000.83,-000.06,0000.34,0000.17,0000.66,0000.18,0000.62,18.8,25.5,03.7,02.5,0675.2,31.0
2021-08-02T01:08:00Z,00000200,00000000,0003.11,0001.18,0000.92,0000.64,0000.12,-000.07,0000.22,0000.54,0000.62,18.8,25.5,03.6,02.4,0675.1,31.0
2021-08-02T01:09:00Z,00000200,00000000,0002.49,0001.31,0000.48,0000.53,0000.11,0000.11,0000.47,0000.47,-000.16,18.8,25.4,03.6,02.4,0675.1,31.0
2021-08-02T01:10:00Z,00000200,00000000,0002.34,0001.36,0000.97,0000.23,0000.18,0000.19,0000.29,0000.18,0000.56,18.8,25.4,03.5,02.3,0675.1,31.0
2021-08-02T01:11:00Z,00000200,00000000,0002.87,0001.72,0001.02,0000.96,0000.18,0000.47,0000.54,0000.35,0000.12,18.8,25.4,03.4,02.3,0675.1,31.0
2021-08-02T01:12:00Z,00000200,00000000,0002.00,0001.26,0001.16,0000.43,0000.49,0000.35,0000.45,0000.64,0000.45,18.8,25.4,03.4,02.3,0675.1,31.0
2021-08-02T01:13:00Z,00000200,00000000,0002.31,0001.52,0001.11,0000.16,0000.29,0000.32,0000.52,0000.28,0000.22,18.7,25.4,03.4,02.3,0675.1,31.0
2021-08-02T01:14:00Z,00000200,00000000,0002.14,0000.97,0000.75,0000.41,0000.18,0000.26,0000.45,0000.49,0000.48,18.7,25.4,03.3,02.2,0675.1,31.0
2021-08-02T01:15:00Z,00000200,00000000,0001.79,0001.19,0000.67,-000.21,0000.04,0000.07,0000.77,0000.39,-000.06,18.7,25.3,03.3,02.2,0675.1,31.0
2021-08-02T01:16:00Z,00000200,00000000,0002.86,0001.61,0000.79,0000.45,0000.50,0000.23,0000.31,0000.34,0000.45,18.7,25.3,03.2,02.1,0675.1,31.0
2021-08-02T01:17:00Z,00000200,00000000,0001.46,0001.02,0000.64,0000.57,0000.08,-000.01,0000.38,0000.40,0000.17,18.7,25.3,03.1,02.1,0675.1,31.0
2021-08-02T01:18:00Z,00000200,00000000,0002.08,0000.89,0000.57,0000.28,0000.23,0000.02,0000.27,0000.50,0000.43,18.8,25.4,03.1,02.1,0675.1,31.0
2021-08-02T01:19:00Z,00000200,00000000,0001.79,0001.18,0000.81,0000.90,0000.10,0000.24,0000.30,-000.15,-000.10,18.9,25.4,03.0,02.0,0675.1,31.0
2021-08-02T01:20:00Z,00000200,00000000,0002.69,0000.72,0001.12,0000.32,0000.36,0000.37,0000.46,0000.81,0000.65,18.9,25.5,03.0,02.0,0675.1,31.0
2021-08-02T01:21:00Z,00000200,00000000,0001.95,0000.97,0000.25,0000.02,0000.30,0000.16,0000.92,0000.54,0000.69,19.0,25.5,03.0,02.0,0675.2,31.0
2021-08-02T01:22:00Z,00000200,00000000,0001.10,0000.85,0000.67,-000.16,0000.11,0000.08,-000.73,-000.88,-001.12,19.0,25.5,03.0,02.1,0675.2,31.0
2021-08-02T01:23:00Z,00000200,00000000,0000.94,0000.80,0000.48,0000.34,0000.19,0000.11,0000.28,0000.14,0000.08,18.9,25.5,02.8,01.9,0675.2,31.0
2021-08-02T01:24:00Z,00000200,00000000,0001.47,0001.05,0000.73,0000.53,0000.48,0000.34,-000.02,0000.83,0000.45,18.9,25.4,02.8,01.9,0675.2,31.0
2021-08-02T01:25:00Z,00000200,00000000,0001.52,0001.14,0000.44,0000.21,0000.00,0000.33,0000.26,-000.46,0000.01,18.9,25.4,02.7,01.8,0675.2,31.0
2021-08-02T01:26:00Z,00000200,00000000,0000.97,0000.46,0000.29,0000.23,0000.06,0000.24,0000.65,0000.78,0000.39,18.8,25.4,02.7,01.8,0675.2,31.0
2021-08-02T01:27:00Z,00000200,00000000,0001.13,0000.45,-000.00,0000.07,0000.04,0000.29,-000.14,0000.02,-000.23,18.8,25.4,02.6,01.8,0675.2,31.0
2021-08-02T01:28:00Z,00000200,00000000,0001.26,0000.78,0000.75,0000.63,0000.19,0000.06,0004.34,0004.52,0004.95,18.8,25.4,02.8,01.9,0675.2,31.0
2021-08-02T01:29:00Z,00000200,00000000,0001.68,0000.39,0000.03,0000.35,0000.30,0000.11,-002.99,-003.54,-003.60,18.8,25.3,03.9,02.6,0675.2,31.0
2021-08-02T01:30:00Z,00000200,00000000,0000.78,0000.67,0000.17,0000.20,0000.20,0000.41,-000.24,-000.13,-000.44,18.7,25.3,02.8,01.9,0675.1,31.0
2021-08-02T01:31:00Z,00000200,00000000,0000.43,0000.61,0000.27,-000.15,0000.02,-000.10,0000.49,0000.44,0000.39,18.7,25.3,02.8,01.9,0675.1,31.0
2021-08-02T01:32:00Z,00000200,00000000,0000.98,0000.19,-000.06,0000.36,0000.04,0000.31,0000.36,0000.42,0000.41,18.8,25.3,02.7,01.8,0675.1,31.0
2021-08-02T01:33:00Z,00000200,00000000,0001.29,0000.58,0000.00,-000.03,-000.13,0000.15,0000.21,0000.35,0000.25,18.8,25.4,02.7,01.8,0675.1,31.0
2021-08-02T01:34:00Z,00000200,00000000,0000.49,0000.20,0000.37,0000.30,0000.02,0000.25,0000.10,-000.15,0000.05,19.0,25.4,02.9,02.0,0675.1,31.0
2021-08-02T01:35:00Z,00000200,00000000,0000.27,0000.32,0000.13,-000.21,0000.19,0000.21,0000.47,0000.35,0000.17,19.0,25.5,02.8,01.9,0675.1,31.1
2021-08-02T01:36:00Z,00000200,00000000,0001.23,0000.66,0000.40,0000.19,-000.03,0000.15,-000.47,-000.27,-000.29,19.1,25.5,02.8,01.9,0675.1,31.1
2021-08-02T01:37:00Z,00000200,00000000,0000.87,0000.43,0000.46,0000.61,-000.04,0000.39,-000.21,-000.07,-000.08,19.1,25.5,02.6,01.8,0675.1,31.0
2021-08-02T01:38:00Z,00000200,00000000,0001.29,0000.52,0000.36,0000.34,0000.12,0000.11,0000.45,0000.43,-000.13,19.1,25.5,02.7,01.8,0675.0,31.0
2021-08-02T01:39:00Z,00000200,00000000,0001.46,0000.56,0000.13,-000.26,0000.18,0000.20,0000.45,0000.04,0000.83,19.0,25.5,02.9,01.9,0675.0,31.0
2021-08-02T01:40:00Z,00000200,00000000,0000.49,0000.13,0000.25,0000.16,0000.18,0000.02,-000.17,0000.01,-000.31,19.0,25.4,02.8,01.9,0675.0,31.0
2021-08-02T01:41:00Z,00000200,00000000,0000.67,0000.16,0000.16,0000.15,0000.07,0000.12,0000.05,0000.15,-000.11,19.0,25.4,02.9,01.9,0675.0,31.0
2021-08-02T01:42:00Z,00000200,00000000,0001.04,0000.18,0000.06,0000.13,0000.17,0000.11,-000.09,0000.11,0000.18,18.9,25.4,02.8,01.9,0675.0,31.0
2021-08-02T01:43:00Z,00000200,00000000,0000.83,0000.21,0000.06,0000.20,0000.03,0000.01,0000.12,-000.22,0000.03,18.9,25.4,02.8,01.9,0675.0,31.0
2021-08-02T01:44:00Z,00000200,00000000,-000.23,0000.33,0000.23,-000.05,0000.25,0000.31,0000.39,0000.30,0000.37,18.9,25.4,02.7,01.8,0675.0,31.0
2021-08-02T01:45:00Z,00000200,00000000,0000.18,-000.05,0000.05,-000.64,-000.01,0000.41,-000.06,0000.18,-000.07,18.8,25.4,02.9,01.9,0675.0,31.0
2021-08-02T01:46:00Z,00000200,00000000,-000.12,0000.43,0000.21,0000.52,0000.26,0000.32,0000.24,-000.07,0000.22,18.8,25.3,02.9,01.9,0674.9,31.0
2021-08-02T01:47:00Z,00000200,00000000,0000.29,0000.16,-000.03,-000.23,0000.06,0000.11,-000.08,0000.26,-000.23,18.8,25.3,02.9,01.9,0674.9,31.0
2021-08-02T01:48:00Z,00000200,00000000,-000.15,-000.03,0000.13,0000.41,-000.41,0000.52,0000.04,0000.02,0000.18,18.9,25.4,02.8,01.9,0674.9,31.0
2021-08-02T01:49:00Z,00000200,00000000,0000.37,0000.01,0000.05,-000.27,0000.22,0000.18,-000.09,-000.09,0000.27,19.0,25.4,02.9,02.0,0674.9,31.0
2021-08-02T01:50:00Z,00000200,00000000,0000.57,0000.15,-000.03,0000.87,-000.02,-000.02,0000.50,0000.21,0000.06,19.0,25.5,02.9,01.9,0674.9,31.0
2021-08-02T01:51:00Z,00000200,00000000,-000.15,0000.24,0000.31,0000.61,0000.08,0000.29,0000.21,0000.21,-000.38,19.1,25.5,03.0,02.0,0674.9,31.1
2021-08-02T01:52:00Z,00000200,00000000,-000.13,-000.12,0000.11,0000.05,-000.17,0000.01,-000.62,-000.45,0000.22,19.1,25.5,02.9,02.0,0674.9,31.0
2021-08-02T01:53:00Z,00000200,00000000,0000.17,0000.44,0000.41,-000.06,-000.29,0000.32,0000.15,0000.16,-000.40,19.0,25.5,02.8,01.9,0674.8,31.0
2021-08-02T01:54:00Z,00000200,00000000,0000.51,0000.28,0000.08,0000.73,-000.17,0000.29,0000.14,-000.01,0000.14,19.0,25.4,02.7,01.8,0674.8,31.0
2021-08-02T01:55:00Z,00000200,00000000,0000.37,-000.11,-000.10,-000.02,-000.06,0000.38,-000.22,-000.32,0000.07,18.9,25.4,02.7,01.8,0674.8,31.0
2021-08-02T01:56:00Z,00000200,00000000,0000.90,-000.05,0000.30,0000.48,-000.08,0000.06,0000.28,0000.64,0000.34,18.9,25.4,02.8,01.9,0674.8,31.0
2021-08-02T01:57:00Z,00000200,40000000,,,,,,,0000.52,0000.04,0000.26,18.9,25.4,02.2,01.5,0674.7,31.0
2021-08-02T01:58:00Z,00000200,60000000,,,,,,,-000.74,-000.46,-000.50,18.6,25.5,02.9,01.9,0673.8,31.0
2021-08-02T01:59:00Z,00000200,20000000,,,,,,,-000.23,-000.06,-000.16,18.6,25.6,02.6,01.7,0673.8,31.0
